Content
SEND FEEDBACK

Daily
Averages
Monthly
Summary
Spain

A CORUŅA - DOWNTOWN, SPAIN


Home > Europe > Spain
Elevation: 220 feet     Latitude: 43 22N     Longitude: 008 25W

WEATHER
 
SELECT A DAY
Number of Records: 274,086;   Date Range: 7/1/96 - 10/19/14
 
SHARE

PRINT THIS DATA

[ ← Previous Day ]
WEATHER ALMANAC - MARCH 20, 2013
[ Next Day → ]
[ °C ]   °F
Weather ElementAverageHighLow
Temperature50.8 °F57.2 °F (1:30 pm)39.2 °F (6:30 am)
Dewpoint41.2 °F44.6 °F (11:30 pm)39.2 °F (5:30 am)
Humidity71.4 %100 % (1:00 am)51 % (4:30 pm)
Barometer29.90 in29.95 in (11:00 am)29.74 in (12:30 am)
Wind Speed9.8 mph17.3 mph (5:00 pm)
Wind Gust32.2 mph (8:00 pm)
Weather ElementAverage
Visibility6.2 mi
Wind DirectionSSE (158.4 °)

Weather ElementTotal
Precipitation---
Heating Degree Days16.8 (Base 65)
Averaged from 37 records on March 20, 2013
WEATHER CONDITIONS BREAKOUT
WIND DIRECTION BREAKOUT
WEATHER BY HOUR - MARCH 20, 2013
[ °C ]   °F
Local TimeTemperatureDewpointHumidityBarometerVisibilityWind DirectionWind SpeedGust SpeedPrecipitationEventsConditions
12:30 AM44.6 °F42.8 °F93 %29.74 in6.2 miSouth (190°)3.5 mphPartly Cloudy
1:00 AM42.8 °F42.8 °F100 %29.77 in6.2 miVariable2.3 mphPartly Cloudy
5:30 AM41.0 °F39.2 °F93 %29.83 in6.2 miVariable2.3 mphMostly Cloudy
6:00 AM41.0 °F39.2 °F93 %29.83 in6.2 miVariable2.3 mphMostly Cloudy
6:30 AM39.2 °F39.2 °F100 %29.83 in6.2 miVariable1.2 mphMostly Cloudy
7:00 AM39.2 °F39.2 °F100 %29.86 in6.2 miVariable1.2 mphScattered Clouds
7:30 AM39.2 °F39.2 °F100 %29.86 in6.2 miSouth (170°)4.6 mphScattered Clouds
8:00 AM39.2 °F39.2 °F100 %29.86 in6.2 miSouth (170°)6.9 mphMostly Cloudy
8:30 AM41.0 °F39.2 °F93 %29.89 in6.2 miSouth (170°)6.9 mphMostly Cloudy
9:00 AM42.8 °F41.0 °F93 %29.89 in6.2 miSouth (180°)4.6 mphMostly Cloudy
10:00 AM48.2 °F41.0 °F76 %29.92 in6.2 miSSW (200°)8.1 mphPartly Cloudy
10:30 AM50.0 °F41.0 °F71 %29.92 in6.2 miSSW (210°)10.4 mphPartly Cloudy
11:00 AM51.8 °F41.0 °F67 %29.95 in6.2 miSouth (190°)9.2 mphPartly Cloudy
11:30 AM53.6 °F41.0 °F62 %29.95 in6.2 miSSW (210°)8.1 mphPartly Cloudy
12:30 PM53.6 °F42.8 °F67 %29.95 in6.2 miSouth (190°)10.4 mphScattered Clouds
1:00 PM55.4 °F41.0 °F58 %29.95 in6.2 miSSW (200°)9.2 mphMostly Cloudy
1:30 PM57.2 °F41.0 °F55 %29.95 in6.2 miSouth (190°)11.5 mphScattered Clouds
2:00 PM55.4 °F39.2 °F54 %29.95 in6.2 miSSW (200°)13.8 mphMostly Cloudy
2:30 PM57.2 °F42.8 °F59 %29.95 in6.2 miSouth (190°)15.0 mphScattered Clouds
3:00 PM57.2 °F41.0 °F55 %29.92 in6.2 miSSW (200°)12.7 mphScattered Clouds
3:30 PM55.4 °F41.0 °F58 %29.92 in6.2 miSSW (210°)15.0 mphScattered Clouds
4:00 PM57.2 °F41.0 °F55 %29.92 in6.2 miSSW (210°)16.1 mphPartly Cloudy
4:30 PM57.2 °F39.2 °F51 %29.92 in6.2 miSSW (200°)15.0 mphPartly Cloudy
5:00 PM57.2 °F41.0 °F55 %29.92 in6.2 miSSW (200°)17.3 mph28.8 mphPartly Cloudy
5:30 PM55.4 °F39.2 °F54 %29.92 in6.2 miSSW (200°)17.3 mphPartly Cloudy
6:00 PM55.4 °F41.0 °F58 %29.95 in6.2 miSSW (200°)12.7 mph24.2 mphPartly Cloudy
6:30 PM55.4 °F41.0 °F58 %29.95 in6.2 miSSW (200°)12.7 mphPartly Cloudy
7:00 PM53.6 °F41.0 °F62 %29.92 in6.2 miSouth (180°)11.5 mph23.0 mphPartly Cloudy
7:30 PM53.6 °F42.8 °F67 %29.92 in6.2 miSouth (180°)11.5 mphPartly Cloudy
8:00 PM53.6 °F42.8 °F67 %29.92 in6.2 miSSE (160°)15.0 mph32.2 mphPartly Cloudy
8:30 PM53.6 °F42.8 °F67 %29.92 in6.2 miSouth (170°)9.2 mph25.3 mphPartly Cloudy
9:00 PM53.6 °F42.8 °F67 %29.92 inSSE (150°)8.1 mphClear
9:30 PM53.6 °F42.8 °F67 %29.92 inSE (140°)11.5 mphClear
10:00 PM53.6 °F42.8 °F67 %29.92 inSE (140°)12.7 mph25.3 mphClear
10:30 PM53.6 °F42.8 °F67 %29.92 inSE (140°)11.5 mphClear
11:00 PM53.6 °F42.8 °F67 %29.89 inSSE (150°)11.5 mphClear
11:30 PM55.4 °F44.6 °F67 %29.89 in6.2 miSouth (170°)11.5 mph23.0 mphPartly Cloudy
Hourly data recorded from LECO, located miles away from A Coruņa - Downtown, Spain







STORIES FROM OUR PARTNERS